CW7779 Weather Reports


time (UTC)temp
F
wind
direction
speed
knots
gust
knots
rain 1hr
in
rain 24hr
in
rain mn
in
humidity
%
barometer
mb
20260506024542 68 223 0.9 6.1 0.00 0.00 0.00 74 1017.7
20260506023031 68 211 1.7 6.1 0.00 0.00 0.00 74 1017.7
20260506021529 68 210 1.7 5.2 0.00 0.00 0.00 73 1017.7
20260506020029 68 176 3.5 7.0 0.00 0.00 0.00 73 1017.7
20260506014529 68 196 2.6 8.7 0.00 0.00 0.00 72 1017.7
20260506013028 68 214 3.5 7.8 0.00 0.00 0.00 73 1017.7
20260506011526 68 221 2.6 6.1 0.00 0.00 0.00 74 1017.7
20260506010032 68 198 2.6 7.0 0.00 0.00 0.00 74 1017.6
20260506004524 68 199 2.6 6.1 0.00 0.00 0.00 74 1017.4
20260506003024 69 207 2.6 7.0 0.00 0.00 0.00 73 1017.3
20260506001532 69 228 2.6 6.1 0.00 0.00 0.00 71 1017.3
20260506000022 70 213 1.7 7.8 0.00 0.00 0.00 69 1017.4
20260505234528 70 221 2.6 7.0 0.00 0.00 0.00 68 1017.3
20260505233022 71 186 1.7 9.6 0.00 0.00 0.00 67 1017.6
20260505231522 71 234 2.6 7.8 0.00 0.00 0.00 66 1017.6
20260505230043 72 220 3.5 9.6 0.00 0.00 0.00 67 1017.6
20260505224521 72 173 4.3 10.4 0.00 0.00 0.00 65 1017.7
20260505223020 72 217 5.2 10.4 0.00 0.00 0.00 65 1017.6
20260505221520 73 203 6.1 13.0 0.00 0.00 0.00 64 1017.6
20260505220029 73 229 5.2 13.9 0.00 0.00 0.00 64 1017.7
20260505214519 74 205 4.3 13.9 0.00 0.00 0.00 63 1017.3
20260505213022 73 198 6.1 12.2 0.00 0.00 0.00 62 1017.3
20260505211518 74 161 5.2 10.4 0.00 0.00 0.00 61 1017.2
20260505210017 74 185 5.2 10.4 0.00 0.00 0.00 62 1017.5
20260505204516 74 214 6.1 12.2 0.00 0.00 0.00 61 1017.7
20260505203019 74 182 6.1 13.9 0.00 0.00 0.00 61 1017.7
20260505201516 73 236 7.0 12.2 0.00 0.00 0.00 62 1017.9
20260505200015 74 256 6.1 13.0 0.00 0.00 0.00 62 1018.0
20260505194515 74 222 7.0 15.6 0.00 0.00 0.00 60 1018.2
20260505193014 75 226 5.2 12.2 0.00 0.00 0.00 60 1018.4
20260505191515 76 180 3.5 10.4 0.00 0.00 0.00 61 1018.8
20260505190013 77 176 2.6 7.8 0.00 0.00 0.00 61 1018.8
20260505184512 77 134 3.5 7.8 0.00 0.00 0.00 58 1018.8
20260505183012 76 200 2.6 8.7 0.00 0.00 0.00 58 1018.7
20260505181511 76 153 2.6 9.6 0.00 0.00 0.00 56 1018.7
20260505180025 76 219 3.5 13.9 0.00 0.00 0.00 57 1018.7
20260505174509 77 267 4.3 12.2 0.00 0.00 0.00 54 1018.8
20260505173008 76 237 4.3 10.4 0.00 0.00 0.00 56 1018.8
20260505171507 76 205 4.3 10.4 0.00 0.00 0.00 56 1018.8
20260505170005 75 208 3.5 11.3 0.00 0.00 0.00 57 1018.8
20260505164505 75 205 5.2 9.6 0.00 0.00 0.00 56 1018.8
20260505163005 75 216 3.5 13.9 0.00 0.00 0.00 56 1019.2
20260505161504 75 151 2.6 12.2 0.00 0.00 0.00 56 1019.3
20260505153003 75 217 4.3 9.6 0.00 0.00 0.00 54 1019.3
20260505151558 75 225 2.6 7.0 0.00 0.00 0.00 55 1019.3
20260505124535 68 218 3.5 5.2 0.00 0.00 0.00 74 1018.7
20260505123035 66 205 1.7 5.2 0.00 0.00 0.00 83 1018.8
20260505121531 65 209 0.9 2.6 0.00 0.00 0.00 89 1018.7
20260505120030 63 209 0.0 0.0 0.00 0.00 0.00 90 1018.7
20260505114528 62 209 0.0 0.0 0.00 0.00 0.00 89 1018.4
20260505113027 61 209 0.0 0.0 0.00 0.00 0.00 89 1018.3
20260505111527 60 209 0.0 0.0 0.00 0.00 0.00 88 1018.2
20260505101541 60 209 0.0 0.0 0.00 0.00 0.00 87 1017.3
20260505100046 60 209 0.0 0.0 0.00 0.00 0.00 87 1017.2
20260505094524 60 209 0.0 0.0 0.00 0.00 0.00 87 1017.2
20260505093023 60 209 0.0 0.0 0.00 0.00 0.00 86 1017.1
20260505091519 61 209 0.0 0.0 0.00 0.00 0.00 86 1017.1
20260505090017 61 209 0.0 0.0 0.00 0.00 0.00 86 1017.0
20260505084515 61 209 0.0 0.0 0.00 0.00 0.00 86 1017.1
20260505083013 62 209 0.0 0.0 0.00 0.00 0.00 85 1017.0
20260505081512 62 209 0.0 0.9 0.00 0.00 0.00 84 1016.8
20260505080008 63 209 0.0 1.7 0.00 0.00 0.00 84 1016.7
20260505074509 63 209 0.0 1.7 0.00 0.00 0.00 83 1016.7
20260505073024 63 209 0.0 2.6 0.00 0.00 0.00 82 1016.6
20260505071504 64 208 0.0 2.6 0.00 0.00 0.00 81 1016.7
20260505070003 64 208 0.9 3.5 0.00 0.00 0.00 81 1016.7
20260505064601 64 212 0.9 2.6 0.00 0.00 0.00 79 1016.8
20260505063113 65 209 0.9 2.6 0.00 0.00 0.00 78 1016.8
20260505061557 65 210 0.9 5.2 0.00 0.00 0.00 77 1017.1
20260505060055 66 216 1.7 7.0 0.00 0.00 0.00 77 1017.2
20260505054554 66 206 1.7 6.1 0.00 0.00 0.00 76 1017.2
20260505053054 66 220 3.5 6.1 0.00 0.00 0.00 76 1017.2
20260505051552 66 231 0.9 7.8 0.00 0.00 0.00 74 1017.2
20260505041548 66 208 1.7 7.0 0.00 0.00 0.00 70 1017.5
20260505040046 66 195 2.6 9.6 0.00 0.00 0.00 70 1017.6
20260505034549 66 186 0.9 9.6 0.00 0.00 0.00 69 1017.5
20260505033046 67 224 1.7 7.8 0.00 0.00 0.00 69 1017.6
20260505031550 67 220 3.5 7.8 0.00 0.00 0.00 68 1017.7
20260505030044 67 244 2.6 7.8 0.00 0.00 0.00 68 1017.7